sat.trackr.live / text

‹ back to catalog

STARLINK-1470

NORAD 45772 · 2020-038AU

PAYLOAD ACTIVE UNKNOWN

§ Identity

Operator
Country
US
Launch date
2020-06-13
Launch site
AFETR
Launch vehicle
Mass (kg)
RCS (m²)

Purposes: comms

External: N2YO · Heavens-Above · Gunter

§ Orbital elements

Epoch: 2026-09-19T19:16:10.867584Z

Period
93.32 min
Inclination
53.0406°
Eccentricity
0.0003209
Mean motion
15.43092938 rev/d
Perigee alt
434.8 km
Apogee alt
439.2 km
Semi-major
6,815.1 km
B*
8.4586e-4
RAAN
342.5716°
Arg perigee
352.9945°
Mean anomaly
7.1014°
Rev number
34,690

§ Raw data

STARLINK-14701 45772U 20038AU  26262.80290356  .00037757  00000+0  84586-3 0  99912 45772  53.0406 342.5716 0003209 352.9945   7.1014 15.43092938346903

JSON: /api/v1/satellites/45772 · /tle

For live sub-satellite position, see the globe view (requires WebGL).

§ Visibility from observer

Set your observer location to see the next 7 days of passes ≥ 10°. The values pass through the URL so the page stays shareable.

No JS? Fill the form by hand. The geolocation button needs JavaScript.